When you browse on this site, cookies collect data to enhance your experience and personalize the content and advertising you see.
Visit our Privacy Policy to learn more. By continuing to use the site, you agree to this use of cookies and data.
  • en Suisse
  • Liste des pays
  • À 7 jours
  • Température de l'eau
  • Carte météo
  • Widgets météo
  • user-avatar
    Se connecter

    Météo par heure à Galle

    Ce jour, 24 Février, Lundi

    Heure Température Précipitation Vent Pression Humidité
    00:00 +25°C° 0 mm 2 m/s 754 mmHg 89%
    01:00 +25°C° 0 mm 2 m/s 753 mmHg 90%
    02:00 +25°C° 0 mm 2 m/s 752 mmHg 90%
    03:00 +25°C° 0 mm 2 m/s 752 mmHg 90%
    04:00 +25°C° 0 mm 1 m/s 753 mmHg 90%
    05:00 +24°C° 0 mm 1 m/s 753 mmHg 89%
    06:00 +26°C° 0 mm 1 m/s 753 mmHg 85%
    07:00 +27°C° 0 mm 1 m/s 753 mmHg 81%
    08:00 +28°C° 0 mm 1 m/s 754 mmHg 77%
    09:00 +29°C° 0 mm 1 m/s 754 mmHg 70%
    10:00 +31°C° 0 mm 1 m/s 754 mmHg 62%
    11:00 +34°C° 0 mm 2 m/s 754 mmHg 54%
    12:00 +34°C° 0 mm 2 m/s 753 mmHg 55%
    13:00 +34°C° 0 mm 3 m/s 752 mmHg 57%
    14:00 +34°C° 0 mm 3 m/s 751 mmHg 59%
    15:00 +33°C° 0 mm 3 m/s 751 mmHg 65%
    16:00 +31°C° 0 mm 3 m/s 751 mmHg 70%
    17:00 +29°C° 0 mm 3 m/s 751 mmHg 76%
    18:00 +29°C° 0.1 mm 2 m/s 752 mmHg 79%
    19:00 +28°C° 0.1 mm 2 m/s 752 mmHg 82%
    20:00 +27°C° 0.1 mm 2 m/s 753 mmHg 86%
    21:00 +27°C° 0 mm 1 m/s 753 mmHg 86%
    22:00 +27°C° 0 mm 1 m/s 753 mmHg 86%
    23:00 +24°C° 0 mm 0 m/s 753 mmHg 87%

    Demain, 25 Février, Mardi

    Heure Température Précipitation Vent Pression Humidité
    00:00 +26°C° 0 mm 1 m/s 753 mmHg 88%
    01:00 +26°C° 0 mm 1 m/s 752 mmHg 89%
    02:00 +25°C° 0 mm 1 m/s 751 mmHg 90%
    03:00 +25°C° 0 mm 1 m/s 751 mmHg 90%
    04:00 +25°C° 0 mm 1 m/s 751 mmHg 91%
    05:00 +25°C° 0 mm 1 m/s 752 mmHg 91%
    06:00 +26°C° 0 mm 1 m/s 752 mmHg 85%
    07:00 +28°C° 0 mm 1 m/s 753 mmHg 79%
    08:00 +29°C° 0 mm 1 m/s 754 mmHg 73%
    09:00 +31°C° 0 mm 1 m/s 753 mmHg 67%
    10:00 +32°C° 0 mm 1 m/s 753 mmHg 60%
    11:00 +34°C° 0 mm 1 m/s 753 mmHg 54%
    12:00 +35°C° 0 mm 2 m/s 752 mmHg 56%
    13:00 +34°C° 0 mm 3 m/s 751 mmHg 59%
    14:00 +34°C° 0 mm 4 m/s 751 mmHg 61%
    15:00 +33°C° 0 mm 3 m/s 751 mmHg 65%
    16:00 +31°C° 0 mm 3 m/s 750 mmHg 69%
    17:00 +30°C° 0 mm 2 m/s 750 mmHg 73%
    18:00 +29°C° 0 mm 2 m/s 751 mmHg 77%
    19:00 +29°C° 0 mm 2 m/s 751 mmHg 81%
    20:00 +28°C° 0 mm 1 m/s 752 mmHg 85%
    21:00 +27°C° 0 mm 1 m/s 752 mmHg 85%
    22:00 +27°C° 0 mm 1 m/s 752 mmHg 86%
    23:00 +27°C° 0 mm 1 m/s 752 mmHg 86%

    Après-demain, 26 Février, Mercredi

    Heure Température Précipitation Vent Pression Humidité
    00:00 +27°C° 0 mm 1 m/s 752 mmHg 87%
    01:00 +26°C° 0 mm 1 m/s 752 mmHg 88%
    02:00 +26°C° 0 mm 1 m/s 751 mmHg 89%
    03:00 +26°C° 0 mm 1 m/s 751 mmHg 90%
    04:00 +26°C° 0 mm 1 m/s 751 mmHg 90%
    05:00 +25°C° 0 mm 1 m/s 751 mmHg 91%
    06:00 +27°C° 0 mm 1 m/s 752 mmHg 85%
    07:00 +28°C° 0 mm 1 m/s 753 mmHg 79%
    08:00 +30°C° 0 mm 1 m/s 754 mmHg 73%
    09:00 +31°C° 0 mm 1 m/s 754 mmHg 67%
    10:00 +33°C° 0 mm 1 m/s 753 mmHg 61%
    11:00 +35°C° 0 mm 1 m/s 753 mmHg 54%
    12:00 +35°C° 0 mm 2 m/s 753 mmHg 59%
    13:00 +34°C° 0 mm 3 m/s 752 mmHg 63%
    14:00 +33°C° 0 mm 4 m/s 751 mmHg 68%
    15:00 +31°C° 0.2 mm 3 m/s 751 mmHg 71%
    16:00 +31°C° 0.2 mm 3 m/s 751 mmHg 74%
    17:00 +30°C° 0.2 mm 3 m/s 751 mmHg 78%
    18:00 +29°C° 0.4 mm 3 m/s 752 mmHg 81%
    19:00 +29°C° 0.4 mm 3 m/s 752 mmHg 84%
    20:00 +28°C° 0.4 mm 3 m/s 753 mmHg 87%
    21:00 +28°C° 0.1 mm 2 m/s 753 mmHg 87%
    22:00 +27°C° 0.1 mm 2 m/s 753 mmHg 88%
    23:00 +27°C° 0.1 mm 2 m/s 753 mmHg 88%

    27 Février, Jeudi

    Heure Température Précipitation Vent Pression Humidité
    00:00 +27°C° 0.1 mm 2 m/s 753 mmHg 88%
    01:00 +27°C° 0.1 mm 2 m/s 752 mmHg 89%
    02:00 +27°C° 0.1 mm 2 m/s 751 mmHg 89%
    03:00 +27°C° 0 mm 2 m/s 752 mmHg 89%
    04:00 +26°C° 0 mm 1 m/s 752 mmHg 89%
    05:00 +26°C° 0 mm 1 m/s 752 mmHg 90%
    06:00 +27°C° 0 mm 1 m/s 753 mmHg 86%
    07:00 +28°C° 0 mm 1 m/s 753 mmHg 82%
    08:00 +29°C° 0 mm 1 m/s 754 mmHg 78%
    09:00 +31°C° 0 mm 1 m/s 754 mmHg 71%
    10:00 +32°C° 0 mm 1 m/s 754 mmHg 63%
    11:00 +35°C° 0 mm 2 m/s 753 mmHg 56%
    12:00 +34°C° 0 mm 2 m/s 753 mmHg 58%
    13:00 +34°C° 0 mm 3 m/s 752 mmHg 60%
    14:00 +34°C° 0 mm 4 m/s 751 mmHg 62%
    15:00 +33°C° 0.1 mm 3 m/s 751 mmHg 67%
    16:00 +31°C° 0.1 mm 3 m/s 751 mmHg 71%
    17:00 +30°C° 0.1 mm 3 m/s 751 mmHg 76%
    18:00 +29°C° 0.1 mm 3 m/s 751 mmHg 79%
    19:00 +29°C° 0.1 mm 2 m/s 752 mmHg 82%
    20:00 +28°C° 0.1 mm 2 m/s 753 mmHg 86%
    21:00 +28°C° 0.1 mm 2 m/s 753 mmHg 86%
    22:00 +27°C° 0.1 mm 1 m/s 753 mmHg 87%
    23:00 +27°C° 0.1 mm 1 m/s 753 mmHg 88%

    28 Février, Vendredi

    Heure Température Précipitation Vent Pression Humidité
    00:00 +27°C° 0 mm 1 m/s 752 mmHg 89%
    01:00 +26°C° 0 mm 1 m/s 752 mmHg 89%
    02:00 +26°C° 0 mm 1 m/s 751 mmHg 90%
    03:00 +26°C° 0 mm 1 m/s 751 mmHg 90%
    04:00 +26°C° 0 mm 1 m/s 751 mmHg 90%
    05:00 +26°C° 0 mm 1 m/s 751 mmHg 90%
    06:00 +27°C° 0.1 mm 1 m/s 752 mmHg 86%
    07:00 +28°C° 0.1 mm 1 m/s 753 mmHg 83%
    08:00 +28°C° 0.1 mm 2 m/s 753 mmHg 80%
    09:00 +30°C° 0.1 mm 2 m/s 753 mmHg 73%
    10:00 +31°C° 0.1 mm 2 m/s 753 mmHg 67%
    11:00 +32°C° 0.1 mm 2 m/s 752 mmHg 60%
    12:00 +32°C° 0 mm 2 m/s 752 mmHg 60%
    13:00 +33°C° 0 mm 3 m/s 751 mmHg 60%
    14:00 +33°C° 0 mm 3 m/s 750 mmHg 60%
    15:00 +33°C° 0 mm 3 m/s 750 mmHg 63%
    16:00 +31°C° 0 mm 3 m/s 751 mmHg 66%
    17:00 +30°C° 0 mm 3 m/s 751 mmHg 69%
    18:00 +29°C° 0 mm 2 m/s 751 mmHg 73%
    19:00 +28°C° 0 mm 2 m/s 752 mmHg 76%
    20:00 +28°C° 0 mm 2 m/s 753 mmHg 79%
    21:00 +27°C° 0 mm 2 m/s 753 mmHg 81%
    22:00 +27°C° 0 mm 2 m/s 753 mmHg 82%
    23:00 +26°C° 0 mm 2 m/s 753 mmHg 84%

    29 Février, Samedi

    Heure Température Précipitation Vent Pression Humidité
    00:00 +26°C° 0 mm 2 m/s 752 mmHg 86%
    01:00 +26°C° 0 mm 2 m/s 752 mmHg 87%
    02:00 +25°C° 0 mm 2 m/s 751 mmHg 89%
    03:00 +25°C° 0 mm 2 m/s 751 mmHg 90%
    04:00 +25°C° 0 mm 2 m/s 751 mmHg 91%
    05:00 +25°C° 0 mm 2 m/s 751 mmHg 92%
    06:00 +26°C° 0 mm 2 m/s 752 mmHg 85%
    07:00 +28°C° 0 mm 2 m/s 753 mmHg 79%
    08:00 +29°C° 0 mm 2 m/s 753 mmHg 72%
    09:00 +30°C° 0 mm 2 m/s 753 mmHg 65%
    10:00 +32°C° 0 mm 2 m/s 753 mmHg 58%
    11:00 +34°C° 0 mm 2 m/s 752 mmHg 50%
    12:00 +34°C° 0 mm 3 m/s 752 mmHg 53%
    13:00 +34°C° 0 mm 3 m/s 751 mmHg 56%
    14:00 +33°C° 0 mm 4 m/s 750 mmHg 59%
    15:00 +31°C° 0 mm 3 m/s 750 mmHg 63%
    16:00 +30°C° 0 mm 3 m/s 750 mmHg 67%
    17:00 +30°C° 0 mm 2 m/s 750 mmHg 72%
    18:00 +29°C° 0.1 mm 1 m/s 751 mmHg 75%
    19:00 +28°C° 0.1 mm 1 m/s 752 mmHg 79%
    20:00 +25°C° 0.1 mm 0 m/s 752 mmHg 83%
    21:00 +25°C° 0.1 mm 0 m/s 752 mmHg 84%
    22:00 +25°C° 0.1 mm 0 m/s 753 mmHg 85%
    23:00 +26°C° 0.1 mm 1 m/s 753 mmHg 86%
    Voir plus